Regional Weather Roundup
Issued by NWS Boston, MA

Home | Current Version | Previous Version | Text Only | Print | Product List | Glossary On
Versions: 1 2 3 4 5 6 7 8 9 10 11 12 13 14 15 16 17 18 19 20 21 22 23 24 25 26 27 28 29 30 31 32 33 34 35 36 37 38 39 40 41 42 43 44 45 46 47 48 49 50
000
ASUS41 KBOX 191010
RWRBOX

REGIONAL WEATHER ROUNDUP
NATIONAL WEATHER SERVICE TAUNTON MA
600 AM EDT FRI SEP 19 2014

NOTE:  "FAIR" INDICATES FEW OR NO CLOUDS BELOW 12,000 FEET WITH NO
SIGNIFICANT WEATHER AND/OR OBSTRUCTIONS TO VISIBILITY.  THE FOLLOWING
OBSERVATION LOCATIONS DO NOT REPORT PRESENT WEATHER...PROVINCETOWN...
SMITHFIELD...BLOCK ISLAND...KEENE...AND OXFORD.

MAZALL-191100-
EASTERN MASSACHUSETTS

CITY           SKY/WX    TMP DP  RH WIND       PRES   REMARKS
BOSTON         PTCLDY    48  36  63 N12       30.28R
BEVERLY        CLEAR     41  34  76 N8        30.28R
LAWRENCE       CLEAR     40  36  86 N3        30.32R
BEDFORD        CLEAR     39  36  89 N6        30.29R
BLUE HILL        N/A     45  36  70 N10       30.25R
NORWOOD        CLEAR     46  37  71 NW3       30.27R
MARSHFIELD     NOT AVBL
PLYMOUTH       PTCLDY    51  38  60 NE15      30.25R
TAUNTON        PTCLDY    48  41  76 N3        30.25R
NEW BEDFORD    MOCLDY    52  41  66 N8        30.24R
$$

MAZALL-191100-
CAPE COD AND THE ISLANDS

CITY           SKY/WX    TMP DP  RH WIND       PRES   REMARKS
FALMOUTH       PTCLDY    54  41  62 NE12G21   30.23R
HYANNIS        PTCLDY    54  42  64 NE16G22   30.21R
CHATHAM        MOCLDY    55  41  59 N7G20     30.23R
PROVINCETOWN   PTCLDY    52  37  58 NE17G25   30.26R
NANTUCKET      CLEAR     56  45  66 N21       30.20R
MARTHAS VNYRD  PTCLDY    54  43  66 N15G23    30.21R
$$

MAZALL-191100-
CENTRAL AND WESTERN MASSACHUSETTS

CITY           SKY/WX    TMP DP  RH WIND       PRES   REMARKS
WORCESTER      CLEAR     42  34  73 N9        30.27R
FITCHBURG      CLEAR     39  35  86 NW7       30.31R
ORANGE         CLEAR     37  35  92 CALM      30.30R
SPRINGFIELD    CLEAR     43  37  82 N10       30.29R
WESTFIELD      CLEAR     43  38  82 N8        30.30R
NORTH ADAMS    FOG       40  39  97 CALM      30.31R VSB 3/4
PITTSFIELD     CLEAR     38  37  97 CALM      30.27R
$$

RIZALL-191100-
RHODE ISLAND

CITY           SKY/WX    TMP DP  RH WIND       PRES   REMARKS
PROVIDENCE     MOCLDY    50  38  63 N13       30.27R
NEWPORT        MOCLDY    51  41  68 N8        30.24R
BLOCK ISLAND   MOCLDY    55  43  62 NE13G25   30.23R
SMITHFIELD     CLEAR     45  32  61 N8        30.26R
WESTERLY       MOCLDY    51  41  68 N7        30.25R
$$

CTZALL-191100-
CONNECTICUT

CITY           SKY/WX    TMP DP  RH WIND       PRES   REMARKS
BRADLEY INTL   CLEAR     45  38  76 N9        30.28R
HARTFORD       CLEAR     48  39  71 N9        30.28R
BRIDGEPORT     PTCLDY    53  39  59 NE12      30.26R
DANBURY        PTCLDY    50  36  58 NE8       30.27R
GROTON         PTCLDY    50  40  68 N9        30.24R
NEW HAVEN      PTCLDY    52  39  61 N14       30.25R
CHESTER        FAIR      48  39  71 N7        30.26R
MERIDEN        PTCLDY    49  38  65 N8        30.27R
WILLIMANTIC    CLEAR     46  38  73 N7        30.27R
OXFORD         CLEAR     46  34  61 NE14      30.26R
$$

MEZ002-015-021-024-NHZ003-005-008-011-012-014-VTZ005-008-191100-
NORTHERN NEW ENGLAND

CITY           SKY/WX    TMP DP  RH WIND       PRES   REMARKS
PORTLAND ME    CLEAR     38  33  82 N8        30.31R
BANGOR ME      CLEAR     32  29  88 CALM      30.29R
CONCORD NH     CLEAR     31  30  96 CALM      30.31R
MANCHESTER NH  PTCLDY    42  36  79 N6        30.30R
NASHUA NH      CLEAR     38  36  92 CALM      30.32R
PORTSMOUTH NH  PTCLDY    41  35  78 N7        30.30R
JAFFREY NH     CLEAR     33  32  96 CALM      30.30R
KEENE NH       CLEAR     36  27  69 CALM      30.32R VSB 1
BURLINGTON VT  PTCLDY    33  31  92 CALM      30.36R
MT. WASHINGTON PTCLDY    16  12  86 N35         N/A  WCI  -6
$$

NYZ052-076-191100-
EASTERN NEW YORK

CITY           SKY/WX    TMP DP  RH WIND       PRES   REMARKS
ALBANY         MOCLDY    42  35  76 N8        30.33R
NEW YORK CITY  PTCLDY    57  50  77 NE15      30.23R
$$

ANZALL-191100-
MARINE OBSERVATIONS

STATION/POSITION TIME  TEMP    WIND        PRES    VSBY  WAVE
                       AIR SEA DIR/SP/G                  HT/PER
                 (UTC) (F)     (DEG/KT/KT) (MB)    (MI)  (FT/S)
BOSTON BUOY      0950   52 60   30/ 17/ 19 1024.8R         5/ 6
BUZZARDS BAY     0900           20/ 22/ 26 1022.8R
NANTUCKET SOUND  0950   57 67   30/ 21/ 25 1022.4R         3/ 4
MASS BAY-STELLWA 0904   53 60   30/ 16/ 21   N/A    1 7/8  5/ 5
ISLE OF SHOALS   1000   47      10/ 19/ 22 1025.2R
S OF BLOCK IS    0908      68                N/A           5/ 5
$$

......................KEY.........................
  SKY/WX - SKY CONDITION/PRESENT WEATHER
  TMP    - TEMPERATURE IN FAHRENHEIT
  DWPT   - DEWPOINT IN FAHRENHEIT
  RH     - RELATIVE HUMIDITY IN PERCENT
  WIND   - DIRECTION AND SPEED IN MPH
  PRES   - MEAN SEA LEVEL PRESSURE IN INCHES OF HG
  WCI    - WIND CHILL INDEX
  VSB    - VISIBILITY IN MILES
  HX     - HEAT INDEX
  TC     - TEMPERATURE IN CELSIUS
  VRB    - VARIABLE WIND DIRECTION
  N/A    - NOT AVAILABLE



USA.gov is the U.S. government's official web portal to all federal, state and local government web resources and services.